Tracking 27422 objects as of 31-May-2023
HD Live streaming from Space Station
objects crossing your sky now

USA 17

Track USA 17 now!
10-day predictions
USA 17 is classified as:


NORAD ID: 16625
Int'l Code: 1986-014F
Perigee: 392.4 km
Apogee: 1,731.2 km
Inclination: 63.3 °
Period: 106.3 minutes
Semi major axis: 7432 km
RCS: Unknown
Launch date: February 9, 1986
Source: United States (US)
Launch site: AIR FORCE WESTERN TEST RANGE (AFWTR)
Your satellite tracking list
Your tracking list is empty




NASA's NSSDC Master Catalog

Two Line Element Set (TLE):
1 16625U 86014F   23150.43284709  .00006002  00000-0  49571-3 0  9994
2 16625  63.2982 234.9990 0900611  95.2724 275.1593 13.54808691190742
Source of the keplerian elements: AFSPC